Weather History for Evansville, IN

Change the Weather History Date:

Wednesday, February 6, 2013

  Actual Average Record
Temperature  
Mean Temperature 36 °F 34 °F  
Max Temperature 47 °F 43 °F 68 °F (1925)
Min Temperature 25 °F 25 °F -4 °F (1982)
Degree Days  
Heating Degree Days 29 31  
Month to date heating degree days 205 187  
Since 1 July heating degree days 2770 2966  
Cooling Degree Days 0 0  
Month to date cooling degree days 0 0  
Year to date cooling degree days 0 0  
Moisture  
Dew Point 27 °F    
Average Humidity 67    
Maximum Humidity 85    
Minimum Humidity 49    
Precipitation  
Precipitation 0.00 in 0.12 in 0.72 in (1972)
Month to date precipitation 0.16 0.72  
Year to date precipitation 6.93 3.82  
Snow  
Snow 0.00 in 0.20 in 1.50 in (2003)
Month to date snowfall 0.8 0.9  
Since 1 July snowfall 11.8 7.8  
Snow Depth 0.00 in    
Sea Level Pressure  
Sea Level Pressure 30.22 in    
Wind  
Wind Speed 3 mph (ENE)    
Max Wind Speed 12 mph    
Max Gust Speed 14 mph    
Visibility 9 miles    
Events      
T = Trace of Precipitation, MM = Missing Value Source: NWS Daily Summary

Daily Weather History Graph

Daily Weather History Graph

Search for Another Location

Airport:

Trip Planner

Search our weather history database for the weather conditions in past years. The results will help you decide how hot, cold, wet, or windy it might be!

Date:

Astronomy

Feb. 06, 2013 Rise Set
Actual Time 6:49 AM CST 5:19 PM CST
Civil Twilight 6:22 AM CST 5:46 PM CST
Nautical Twilight 5:51 AM CST 6:17 PM CST
Astronomical Twilight 5:20 AM CST 6:48 PM CST
Moon 3:31 AM CST (2/6) 1:38 PM CST (2/6)
Length of Visible Light 11h 24m
Length of Day
10h 29m
Waning Crescent, 17% of the Moon is Illuminated
Feb 6
Waning Crescent
Feb 10
New
Feb 17
First Quarter
Feb 25
Full
Mar 4
Last Quarter

Hourly Weather History & Observations

Time (CST) Temp. Windchill Dew Point Humidity Pressure Visibility Wind Dir Wind Speed Gust Speed Precip Events Conditions
12:54 AM 35.6 °F 30.7 °F 28.4 °F 75% 30.13 in 10.0 mi NNW 5.8 mph - N/A   Clear
1:54 AM 33.1 °F 30.0 °F 28.0 °F 82% 30.17 in 9.0 mi North 3.5 mph - N/A   Clear
2:54 AM 32.0 °F 28.7 °F 28.0 °F 85% 30.18 in 8.0 mi NNW 3.5 mph - N/A   Clear
3:54 AM 30.0 °F 25.2 °F 26.1 °F 85% 30.19 in 8.0 mi North 4.6 mph - N/A   Clear
4:54 AM 30.0 °F 25.2 °F 25.0 °F 82% 30.19 in 8.0 mi NNE 4.6 mph - N/A   Clear
5:54 AM 27.0 °F - 23.0 °F 85% 30.23 in 7.0 mi Calm Calm - N/A   Clear
6:54 AM 26.1 °F - 21.9 °F 84% 30.25 in 4.0 mi Calm Calm - N/A   Clear
7:54 AM 28.9 °F - 25.0 °F 85% 30.26 in 4.0 mi Calm Calm - N/A   Clear
8:54 AM 33.8 °F 30.8 °F 26.6 °F 75% 30.26 in 8.0 mi ENE 3.5 mph - N/A   Clear
9:54 AM 37.0 °F 32.4 °F 26.1 °F 65% 30.29 in 10.0 mi East 5.8 mph - N/A   Clear
10:54 AM 39.0 °F 36.8 °F 27.0 °F 62% 30.29 in 10.0 mi East 3.5 mph - N/A   Clear
11:54 AM 42.1 °F - 27.0 °F 55% 30.27 in 10.0 mi Calm Calm - N/A   Clear
12:54 PM 43.0 °F 41.3 °F 27.0 °F 53% 30.26 in 10.0 mi East 3.5 mph - N/A   Clear
1:54 PM 44.1 °F - 28.0 °F 53% 30.25 in 10.0 mi Calm Calm - N/A   Clear
2:54 PM 45.0 °F 41.8 °F 28.0 °F 52% 30.20 in 10.0 mi East 5.8 mph - N/A   Clear
3:54 PM 46.0 °F - 28.0 °F 50% 30.20 in 10.0 mi Calm Calm - N/A   Clear
4:54 PM 44.1 °F 42.5 °F 28.0 °F 53% 30.20 in 10.0 mi East 3.5 mph - N/A   Clear
5:54 PM 41.0 °F 39.0 °F 28.9 °F 62% 30.23 in 10.0 mi SE 3.5 mph - N/A   Clear
6:54 PM 37.9 °F - 30.0 °F 73% 30.21 in 10.0 mi Calm Calm - N/A   Clear
7:54 PM 39.0 °F - 28.0 °F 65% 30.19 in 10.0 mi Calm Calm - N/A   Clear
8:54 PM 37.0 °F 34.5 °F 28.9 °F 73% 30.20 in 10.0 mi East 3.5 mph - N/A   Clear
9:54 PM 39.0 °F 35.7 °F 28.9 °F 67% 30.18 in 10.0 mi East 4.6 mph - N/A   Clear
10:54 PM 36.0 °F 33.3 °F 30.0 °F 79% 30.16 in 9.0 mi ENE 3.5 mph - N/A   Clear
11:54 PM 37.0 °F - 30.0 °F 76% 30.16 in 9.0 mi Calm Calm - N/A   Clear